GW3347 Weather Reports


time (UTC)temp
C
wind
direction
speed
KPH
gust
KPH
rain 1hr
cm
rain 24hr
cm
rain mn
cm
humidity
%
barometer
mb
20260505054530 16 0 0.0 0.0 0.00 0.00 0.00 58 1010.4
20260505053030 17 0 0.0 0.0 0.00 0.00 0.00 57 1010.6
20260505051532 17 0 0.0 0.0 0.00 0.00 0.00 56 1010.6
20260505041534 17 0 0.0 0.0 0.00 0.00 0.00 58 1010.5
20260505040031 17 0 0.0 0.0 0.00 0.00 0.00 57 1010.4
20260505034533 17 0 0.0 0.0 0.00 0.00 0.00 58 1010.4
20260505033035 16 0 0.0 0.0 0.00 0.00 0.00 61 1010.4
20260505031531 15 0 0.0 0.0 0.00 0.00 0.00 66 1010.4
20260505030030 14 0 0.0 1.6 0.00 0.00 0.00 72 1010.4
20260505024541 14 0 0.0 0.0 0.00 0.00 0.00 70 1010.5
20260505023030 15 0 0.0 0.0 0.00 0.00 0.00 69 1010.3
20260505021537 17 0 0.0 0.0 0.00 0.00 0.00 61 1010.3
20260505020032 17 0 0.0 0.0 0.00 0.00 0.00 57 1010.1
20260505014536 17 0 0.0 0.0 0.00 0.00 0.00 59 1010.3
20260505013032 16 0 0.0 1.6 0.00 0.00 0.00 63 1010.1
20260505011534 16 0 0.0 0.0 0.00 0.00 0.00 69 1010.0
20260505010031 15 0 0.0 0.0 0.00 0.00 0.00 73 1009.9
20260505004531 16 0 0.0 0.0 0.00 0.00 0.00 73 1009.9
20260505003028 16 0 0.0 0.0 0.00 0.00 0.00 69 1009.8
20260505001540 17 0 0.0 3.2 0.00 0.00 0.00 67 1009.9
20260505000039 18 0 0.0 1.6 0.00 0.00 0.00 62 1009.9
20260504234531 19 0 0.0 0.0 0.00 0.00 0.00 57 1009.8
20260504233029 20 0 0.0 0.0 0.00 0.00 0.00 53 1009.7
20260504231540 20 0 0.0 0.0 0.00 0.00 0.00 49 1009.7
20260504230028 21 0 0.0 9.7 0.00 0.00 0.00 48 1009.7
20260504224537 20 0 0.0 9.7 0.00 0.00 0.00 49 1009.6
20260504223030 20 0 1.6 22.5 0.00 0.00 0.00 47 1009.7
20260504221530 20 172 9.7 27.4 0.00 0.00 0.00 45 1009.7
20260504220032 20 150 0.0 32.2 0.00 0.00 0.00 44 1009.7
20260504214531 21 0 9.7 29.0 0.00 0.00 0.00 42 1009.8
20260504213030 21 142 1.6 24.1 0.00 0.00 0.00 44 1009.8
20260504211531 21 196 0.0 27.4 0.00 0.00 0.00 43 1009.8
20260504210043 22 143 1.6 20.9 0.00 0.00 0.00 41 1009.8
20260504204528 24 142 4.8 17.7 0.00 0.00 0.00 38 1009.8
20260504203033 25 0 0.0 17.7 0.00 0.00 0.00 33 1009.8
20260504201531 24 0 0.0 0.0 0.00 0.00 0.00 34 1009.8
20260504200032 24 0 0.0 9.7 0.00 0.00 0.00 32 1009.9
20260504194542 24 0 0.0 14.5 0.00 0.00 0.00 33 1010.1
20260504193030 23 211 1.6 17.7 0.00 0.00 0.00 34 1010.4
20260504191535 23 0 0.0 20.9 0.00 0.00 0.00 37 1010.8
20260504190032 23 0 4.8 27.4 0.00 0.00 0.00 35 1010.9
20260504184537 23 229 6.4 17.7 0.00 0.00 0.00 33 1011.0
20260504183031 23 0 0.0 22.5 0.00 0.00 0.00 39 1011.3
20260504181530 22 0 0.0 19.3 0.00 0.00 0.00 35 1011.5
20260504180048 22 0 0.0 8.0 0.00 0.00 0.00 35 1011.6
20260504174530 22 0 0.0 24.1 0.00 0.00 0.00 38 1011.9
20260504173035 22 0 0.0 12.9 0.00 0.00 0.00 38 1012.1
20260504171532 21 0 1.6 17.7 0.00 0.00 0.00 37 1012.3
20260504081531 10 0 0.0 3.2 0.00 0.00 0.00 66 1014.7